Regional Weather Roundup
Issued by NWS

Home | Current Version | Previous Version | Graphics & Text | Print | Product List | Glossary Off
Versions: 1 2 3 4 5 6 7 8 9 10 11 12 13 14 15 16 17 18 19 20 21 22 23 24 25 26 27 28 29 30 31 32 33 34 35 36 37 38 39 40 41 42 43 44 45 46 47 48 49 50

000
ASUS43 KMPX 301601
RWRMN
WEATHER ROUNDUP FOR MINNESOTA
NATIONAL WEATHER SERVICE TWIN CITIES/CHANHASSEN MN
1100 AM CDT WED JUL 30 2014


NOTE: "FAIR" INDICATES FEW OR NO CLOUDS BELOW 12,000 FEET WITH NO
SIGNIFICANT WEATHER AND/OR OBSTRUCTIONS TO VISIBILITY. N/A MEANS
CURRENT SKY AND/OR WEATHER CONDITIONS ARE NOT AVAILABLE.

MNZ060>063-068>070-301700-
   Twin Cities Metro

CITY           SKY/WX    TMP DP  RH WIND       PRES   REMARKS
TWIN CITIES    FAIR      75  58  55 W6        30.10R
ST PAUL        FAIR      73  59  61 N6        30.09S
CRYSTAL        FAIR      75  59  57 N6        30.08S
BLAINE         SUNNY     73  61  64 CALM      30.09S
LAKEVILLE      FAIR      72  59  64 CALM      30.10R
EDEN PRAIRIE   FAIR      75  61  61 W6        30.09S
SOUTH ST PAUL  FAIR      73  58  59 CALM      30.09S
LAKE ELMO      FAIR      72  61  68 SW5       30.10S
$$
MNZ001>005-007-008-013>017-022>024-027-028-301700-
   Northwest Minnesota

CITY           SKY/WX    TMP DP  RH WIND       PRES   REMARKS
BEMIDJI        FAIR      72  58  60 NW10      30.11S
HALLOCK        FAIR      73  57  56 NW5       30.10F
ROSEAU         FAIR      73  61  64 NW8       30.09S
WARROAD        FAIR      73  61  64 NW10G17   30.09S
THIEF RVR FALL FAIR      72  55  56 NW7       30.12S
CROOKSTON      FAIR      72  59  64 NW7       30.13S
FOSSTON        FAIR      72  57  60 NW10      30.13S
DETROIT LAKES  FAIR      72  55  56 NW8       30.15S
MOORHEAD       FAIR      72  61  68 N5        30.14S
PARK RAPIDS    FAIR      73  55  53 NW12      30.11F
$$
MNZ006-009>011-018-025>026-301700-
   North Central Minnesota

CITY           SKY/WX    TMP DP  RH WIND       PRES   REMARKS
BAUDETTE       FAIR      73  57  57 NW12      30.08S
FLAG ISLAND    FAIR      72  59  64 NW9       30.05S
INTL FALLS     FAIR      73  60  63 NW8       30.04S
WASKISH        FAIR      75  59  57 NW8       30.08S
BIG FORK       FAIR      72  57  60 NW5       30.07S
LONGVILLE      FAIR      70  59  68 NW9       30.10R
GRAND RAPIDS   FAIR      70  57  64 W13       30.08R
CRANE LAKE     FAIR      68  63  83 W3        30.03F
ORR            FAIR      70  57  64 W9        30.02F
COOK           FAIR      66  59  77 W7        30.05S
$$
MNZ012-019>021-037-301700-
   Northeast Minnesota

CITY           SKY/WX    TMP DP  RH WIND       PRES   REMARKS
DULUTH         FAIR      69  58  67 W7        30.06S
ELY            FAIR      66  59  77 W7        30.03F
HIBBING        FAIR      72  59  63 VRB6      30.05F
EVELETH        FAIR      68  57  68 W8        30.06S
DULUTH HARBOR  FAIR      68  61  77 SW7       30.05F
TWO HARBORS    FAIR      68  55  64 W6        30.02F
SILVER BAY     FAIR      70  61  73 SW5       30.02S
GRAND MARAIS     N/A     54  49  83 W5        30.00F
G MARAIS ARPRT FAIR      66  52  59 W5        30.03F
$$
MNZ029>031-032-039>041-046>048-054>057-064-301700-
   West Central Minnesota

CITY           SKY/WX    TMP DP  RH WIND       PRES   REMARKS
FERGUS FALLS   FAIR      72  54  53 N8        30.14S
WHEATON        FAIR      70  57  64 N5        30.16S
MORRIS         FAIR      73  59  60 NW8       30.14S
ALEXANDRIA     FAIR      72  56  57 NW9       30.15S
ELBOW LAKE     FAIR      70  58  66 NW8       30.15R
WADENA         FAIR      72  57  60 NW7       30.12S
GLENWOOD       FAIR      73  57  56 NW8       30.15R
APPLETON       FAIR      75  55  50 NW9       30.14S
BENSON         FAIR      73  57  56 N6        30.14S
ORTONVILLE     FAIR      73  55  53 CALM      30.15S
MADISON        FAIR      75  59  57 N3        30.15S
WILLMAR        FAIR      73  57  56 NW7       30.15R
$$
MNZ033>034-036-042>043-049>051-058-059-301700-
   Central Minnesota

CITY           SKY/WX    TMP DP  RH WIND       PRES   REMARKS
ST CLOUD       FAIR      76  57  51 NW6       30.10S
SAUK CENTRE    FAIR      72  55  56 N10       30.13S
PAYNESVILLE    FAIR      72  53  51 W7        30.13S
AITKIN         FAIR      75  61  60 W3        30.08R
PINE RIVER     FAIR      72  59  64 NW7       30.13S
BRAINERD       FAIR      73  56  54 NW9       30.10S
STAPLES        FAIR      73  55  53 N6        30.12S
LONG PRAIRIE   FAIR      70  55  60 W7        30.14R
LITTLE FALLS   FAIR      73  52  46 NW8       30.11S
LITCHFIELD     FAIR      73  61  64 NW7       30.13R
BUFFALO        FAIR      73  58  59 NW5       30.12R
MAPLE LAKE     FAIR      73  61  65 CALM      30.12S
$$
MNZ037-044-045-052-053-301700-
   East Central Minnesota

CITY           SKY/WX    TMP DP  RH WIND       PRES   REMARKS
PRINCETON      FAIR      75  63  64 SW6       30.10S
MORA           FAIR      70  61  73 W5        30.11R
CAMBRIDGE      FAIR      73  57  56 W5        30.08R
RUSH CITY      FAIR      69  58  66 CALM      30.09S
MOOSE LAKE     FAIR      68  59  73 CALM      30.06S
HINCKLEY       FAIR      68  59  73 SW5       30.09R
CLOQUET        FAIR      70  55  60 W7        30.06F
MCGREGOR       FAIR      70  61  73 NW7       30.09R
$$
MNZ071>073-080-081-089-090-097-098-301700-
   Southwest Minnesota

CITY           SKY/WX    TMP DP  RH WIND       PRES   REMARKS
MONTEVIDEO     FAIR      75  68  78 N5        30.15S
GRANITE FALLS  FAIR      72  59  64 NW6       30.16S
CANBY          FAIR      73  55  51 N6        30.16F
MARSHALL       FAIR      72  57  60 N6        30.15S
REDWOOD FALLS  FAIR      74  58  57 NW6       30.14S
OLIVIA         FAIR      73  61  64 NW7       30.13S
PIPESTONE      FAIR      72  55  56 N3        30.17S
WINDOM         FAIR      72  57  60 W8        30.15S
WORTHINGTON    FAIR      70  55  60 N7        30.18S
JACKSON        FAIR      72  55  56 VRB6      30.16S
TRACY          FAIR      72  59  64 NW3       30.16S
SLAYTON        FAIR      72  55  54 CALM      30.17S
$$
MNZ065>067-074>077-082>085-091>093-301700-
   South Central Minnesota

CITY           SKY/WX    TMP DP  RH WIND       PRES   REMARKS
MANKATO        FAIR      72  57  60 NW7       30.12S
NEW ULM        FAIR      73  61  64 NW9       30.13S
ST JAMES       FAIR      73  57  56 W7        30.14S
FAIRMONT       FAIR      73  55  53 NW7       30.14S
GLENCOE        FAIR      74  56  52 W6        30.11S
FARIBAULT      FAIR      75  55  50 SW3       30.11S
OWATONNA       FAIR      72  57  60 NW5       30.11S
WASECA         FAIR      72  55  56 W5        30.13S
ALBERT LEA     FAIR      73  59  60 NW5       30.12S
$$
MNZ078>079-086>088-094>096-301700-
   Southeast Minnesota

CITY           SKY/WX    TMP DP  RH WIND       PRES   REMARKS
ROCHESTER      FAIR      71  58  63 NW5       30.13R
RED WING       FAIR      72  61  68 CALM      30.08S
STANTON        FAIR      72  57  58 CALM      30.09S
DODGE CENTER   FAIR      72  57  60 NW5       30.11S
WINONA         FAIR      70  55  60 N3        30.09S
AUSTIN         FAIR      72  59  64 CALM      30.11S
PRESTON        FAIR      68  62  81 NW3       30.12R
$$
ABBREVIATIONS USED IN REMARKS
   TC - TEMPERATURES IN CELSIUS
  WCI - WIND CHILL INDEX
   HX - HEAT INDEX
  VSB - VISIBILITY
$$


USA.gov is the U.S. government's official web portal to all federal, state and local government web resources and services.